Location: Elk Forest
(39.5314°N, 75.8738°W)
Time: 12:43:20
(UTC-04:00)

Daily predictions for brighter satellites

Satellite Brightness Start Highest point End
(mag) Time Altitude Azimuth Time Altitude Azimuth Time Altitude Azimuth
Cosmos 1812 3.3 20:43:48 10° SSW 20:47:39 63° W 20:51:30 10° N
Cosmos 1709 Rocket 4.0 20:46:38 10° N 20:52:57 84° E 20:59:08 10° S
Cosmos 1743 3.8 20:50:24 10° NNE 20:53:47 28° ENE 20:57:08 10° SE
CZ-2D R/B 4.1 20:51:10 10° S 20:54:54 51° W 20:58:39 10° NNW
Iridium 4 Rocket 3.6 20:50:36 10° N 20:55:36 89° W 21:01:04 10° S
Envisat 3.1 20:50:58 10° SSE 20:55:59 66° ENE 21:01:02 10° N
Spot 1 4.3 20:54:20 10° SSE 20:58:53 63° ENE 21:03:11 10° N
ASTRO E2 4.0 20:56:47 10° SW 21:00:06 25° S 21:03:15 11° SE
ASTEX 1 4.4 20:57:26 10° SE 21:01:36 29° ENE 21:05:46 10° NNE
Aureole 3 Rocket 4.3 20:55:44 10° SSE 21:02:10 41° E 21:06:54 10° NNE
Tiangong 2 2.0 21:07:20 10° SSW 21:10:08 29° SSE 21:12:57 10° E
Aureole 1 Rocket 3.5 21:08:51 10° SSE 21:11:42 23° ESE 21:14:15 10° NE
NOSS 2-2 (E) 3.4 21:08:46 10° SSW 21:12:45 82° SE 21:17:19 10° NE
SL-08 ROCKET BODY 4.5 21:12:58 10° N 21:19:09 71° E 21:25:18 10° SSE
Meteor 2-4 Rocket 4.1 21:14:21 10° SSE 21:19:36 43° E 21:25:00 10° NNE
USA 186 3.9 21:19:36 10° SSW 21:22:22 25° W 21:25:06 10° NW
ISS -2.9 21:19:35 10° SSW 21:22:24 26° SE 21:25:14 10° ENE
Cosmos 1666 3.2 21:20:54 10° N 21:24:29 41° E 21:26:56 18° SE
Cosmos 923 Rocket 4.0 21:21:41 10° SSW 21:27:00 79° ESE 21:32:19 10° NNE
OAO 2 Rocket 3.6 21:22:17 10° WSW 21:27:00 45° S 21:31:02 14° ESE
Cosmos 1536 Rocket 4.0 21:28:01 10° SSW 21:32:17 62° W 21:36:35 10° N
CZ-3A R/B 1.9 21:28:19 10° SSW 21:32:41 24° SE 21:33:09 23° SE
Cosmos 2184 Rocket 4.0 21:26:42 10° N 21:33:03 72° E 21:38:55 12° SSE
Cosmos 2074 Rocket 4.0 21:27:00 10° N 21:33:16 75° E 21:39:14 11° SSE
Cosmos 1437 3.7 21:31:22 10° SSW 21:34:28 48° W 21:37:37 10° N
CZ-4B DEB 3.5 21:31:49 10° S 21:34:42 46° W 21:37:36 10° NNW
Helios 1A 4.0 21:30:45 10° S 21:34:48 45° W 21:38:52 10° NNW
USA 245 4.1 21:38:45 19° E 21:38:58 19° ENE 21:40:51 10° NNE
Meteor 1-29 4.2 21:37:10 10° N 21:40:24 42° WNW 21:43:35 10° SW
Meteor 1-19 Rocket 4.3 21:34:57 10° S 21:40:47 87° W 21:46:34 10° N
YAOGAN 6 2.8 21:42:06 16° S 21:44:48 65° W 21:48:17 10° NNW
ERS-1 Rocket 2.9 21:41:29 16° SSE 21:45:27 83° ENE 21:50:30 10° NNW
Cosmos 1656 Rocket 3.7 21:40:12 10° NNW 21:45:38 77° WSW 21:49:49 18° SSE
Meteor 1-23 Rocket 4.3 21:43:45 12° S 21:48:44 59° E 21:54:14 10° NNE
MetOp-A 4.2 21:45:09 20° SSE 21:48:53 67° ENE 21:54:13 10° N
MOS 1-B Rocket 4.0 21:46:03 20° SSE 21:50:05 66° ENE 21:56:18 10° N
Cosmos 405 Rocket 3.5 21:47:51 10° SSW 21:51:29 50° WNW 21:55:12 10° N
GENESIS II 4.5 21:49:31 10° NNW 21:53:25 55° NE 21:55:01 31° ESE
H-2A R/B 2.8 21:52:51 23° ESE 21:55:04 33° ENE 21:59:32 10° N
Cosmos 2058 Rocket 4.5 21:54:03 10° NNE 21:57:34 23° ENE 21:58:34 21° E
Meteor 1-15 Rocket 4.4 21:52:58 10° N 21:58:29 56° ENE 22:01:25 27° SE
Cosmos 2112 Rocket 4.1 21:54:36 10° SSW 21:59:49 81° WNW 22:05:03 10° NNE
Cosmos 192 4.2 21:55:36 10° SSW 22:00:30 85° ESE 22:05:26 10° NNE
Cosmos 1025 Rocket 2.9 21:58:34 22° S 22:01:13 73° E 22:05:29 10° NNE
Cosmos 1943 Rocket 4.1 21:57:03 10° NW 22:01:24 23° W 22:05:42 10° SSW
CENTAUR R/B 3.3 21:55:21 10° NW 22:03:18 69° WSW 22:09:18 21° SSE
Cosmos 1441 Rocket 3.3 22:01:18 16° SSW 22:04:12 71° W 22:07:56 10° N
Nadezhda 1 Rocket 4.2 22:00:58 10° S 22:07:17 78° W 22:13:44 10° N
Cosmos 1624 Rocket 4.5 22:03:41 10° N 22:08:47 48° ENE 22:10:57 31° ESE
PSLV R/B 3.2 22:06:50 10° WNW 22:09:57 69° N 22:10:40 47° ENE
NOAA 11 4.3 22:07:48 22° S 22:11:26 75° WSW 22:16:53 10° NNW
SL-08 RB Rocket 3.6 22:14:43 38° SSE 22:16:22 72° ENE 22:20:49 10° N
ARGOS 3.1 22:13:33 29° SSE 22:16:28 88° ENE 22:21:55 10° NNW
COSMOS 2406 4.2 22:10:58 10° SW 22:16:30 48° WNW 22:22:01 10° NNE
Cosmos 2154 Rocket 4.0 22:10:18 10° N 22:16:41 84° E 22:20:26 27° S
SL-27 R/B 3.5 22:14:34 10° SW 22:18:07 48° WNW 22:21:41 10° N
Nimbus 7 Rocket 4.4 22:12:19 10° NNE 22:18:22 71° ESE 22:22:26 22° S
Landsat 7 4.3 22:21:40 37° ESE 22:22:59 46° ENE 22:27:31 10° N
SPOT 5 2.6 22:23:04 38° S 22:24:41 75° WSW 22:29:02 10° NNW
H-2A R/B 3.1 22:24:49 30° E 22:25:38 32° ENE 22:29:40 10° N
Cosmos 2278 4.4 22:21:19 10° N 22:26:44 42° ENE 22:28:45 31° ESE
Cosmos 2056 Rocket 3.5 22:22:25 10° NNW 22:27:34 65° ENE 22:29:10 42° SE
Cosmos 2082 Rocket 2.9 22:28:02 32° ESE 22:28:18 33° ESE 22:33:18 10° NE
Cosmos 405 4.2 22:30:40 10° NNW 22:33:59 37° W 22:34:56 30° SW
Terra 2.3 22:37:12 41° ESE 22:38:01 45° ENE 22:42:34 10° N
Cosmos 839 Rocket 4.4 22:34:58 10° NNW 22:41:32 69° ENE 22:44:54 36° SE
Meteor 2-19 Rocket 4.4 22:35:31 10° N 22:41:39 82° W 22:44:22 36° S
Cosmos 967 Rocket 4.3 22:38:24 12° SSW 22:44:17 85° ESE 22:50:35 10° NNE
Cosmos 2341 Rocket 4.0 22:38:24 10° N 22:44:46 81° W 22:47:39 35° S
Cosmos 2369 3.9 22:39:44 10° NNW 22:45:25 60° ENE 22:46:58 44° ESE
SPOT 1/Viking Rocket 3.7 22:44:16 40° S 22:46:04 69° WSW 22:51:15 10° NNW
COSMOS 2487 3.5 22:47:21 37° NE 22:47:21 37° NE 22:49:44 10° NNE
Tiangong 2 2.4 22:43:35 10° W 22:45:36 35° W 22:45:36 35° W
Cosmos 1437 Rocket 3.4 22:45:13 10° NNW 22:48:54 47° W 22:49:25 44° WSW
Cosmos 1697 Rocket 3.6 22:49:55 10° N 22:55:04 36° ENE 22:56:25 32° E
IGS 5A 3.5 22:56:43 66° ENE 22:56:43 66° ENE 23:00:47 10° N
ISS -2.1 22:55:47 10° W 22:58:50 33° NNW 23:01:52 10° NE
Cosmos 1452 Rocket 3.8 22:54:41 10° N 22:59:50 52° ENE 23:00:34 48° E
Cosmos 2218 Rocket 3.9 22:55:00 10° N 23:01:08 70° E 23:02:38 51° SE
Cosmos 1892 Rocket 4.4 23:01:37 34° SW 23:03:01 47° W 23:07:18 10° N
Cosmos 2228 3.0 23:02:31 10° NNW 23:06:50 72° W 23:06:54 71° WSW
Cosmos 1602 Rocket 3.8 23:10:37 56° NE 23:10:37 56° NE 23:14:19 10° NNE
OAO 2 Rocket 4.1 23:06:39 10° W 23:10:00 37° SW 23:10:00 37° SW
deb Chang Zheng 4 3.5 23:07:16 10° NNE 23:11:26 83° N 23:11:26 83° N
Cosmos 1833 Rocket 2.5 23:11:23 64° SSE 23:12:03 72° ESE 23:17:40 10° NNE
Cosmos 921 Rocket 3.3 23:08:23 10° NNW 23:12:49 61° WSW 23:12:53 60° WSW
Cosmos 1656 3.5 23:10:11 10° NNW 23:15:40 74° ENE 23:16:17 66° ESE
Cosmos 1066 Rocket 4.2 23:15:06 54° SSW 23:16:21 78° W 23:21:57 10° N
Meteor 1-21 4.4 23:19:44 54° E 23:19:52 54° E 23:25:26 10° NNE
SL-19 R/B 4.2 23:16:20 10° N 23:21:43 75° WNW 23:22:49 55° SW
Cosmos 468 4.4 23:24:10 73° E 23:24:10 73° E 23:29:23 10° NNE
CZ-4 R/B 3.8 23:21:07 10° NNE 23:26:10 84° WNW 23:26:30 77° SW
Cosmos 1766 4.3 23:22:25 10° N 23:25:11 41° NNE 23:25:11 41° NNE
Nadezhda 3 Rocket 4.2 23:29:12 51° ESE 23:29:44 52° E 23:35:53 10° NNE
Meteor 1-4 Rocket 4.0 23:27:56 10° NNW 23:30:20 37° NW 23:30:20 37° NW
USA 267 3.1 23:25:13 10° NE 23:31:46 75° SE 23:34:02 44° SSW
Cosmos 1809 Rocket 4.5 23:25:45 10° NNW 23:31:49 72° W 23:32:56 58° SSW
Meteor 2-14 Rocket 4.2 23:28:16 10° N 23:34:23 86° E 23:35:08 70° SSE
H-2A R/B 3.5 23:33:29 24° WSW 23:34:31 25° W 23:38:37 10° NW
Cosmos 1980 Rocket 2.6 23:36:29 10° NNW 23:42:00 51° ENE 23:42:26 50° ENE
SME Rocket 4.0 23:46:35 53° ENE 23:46:41 53° ENE 23:51:04 10° N
SeaSat 1 3.4 23:46:39 36° ENE 23:46:57 37° ENE 23:51:28 10° N
Cosmos 1821 Rocket 4.4 23:43:44 10° N 23:49:47 48° ENE 23:50:18 47° E
Cosmos 2322 Rocket 3.9 23:45:44 10° N 23:50:11 23° NE 23:51:42 21° ENE
